CZ-6A DEB, 61154

Orbit data source: Space-Track

CZ-6A DEB, 61154 is space debris in LEO originally from a launch on Tue, 06 Aug 2024 UTC launched from the Taiyaun Space Center, China (TSC). Debris objects in space refer to the collection of defunct objects orbiting the Earth. Examples of debris include non-operational satellites, rocket bodies, and fragments generated from explosions, collisions, or faulty payload assembly.

Loading next visibility...
Identifier
61154, 2024-140QY
Orbit
LEO
Country
Flag of CNCN / PRC
Related business
Manufacturer
SAST
Mission
Spacecraft
Bus & Motor
Unknown
Mass
Unknown
Launch date (UTC)
2024-08-06 (2 years ago)
Launch vehicle
Unknown
Launch site
Taiyaun Space Center, China (TSC)
Object type
Payload
Rocket body
Debris
Shape & HBR
Unknown shape, 0.1 m
Radar Cross Section
Small (<0.1 m²)

Expand to show TLE details & history
Last TLE update: 15 hours ago

TLE from 15 hours ago
0 CZ-6A DEB
1 61154U 24140QY  26171.33218692  .00004349  00000-0  71148-3 0  9993
2 61154  89.2703 291.9227 0126052 245.3990 113.4051 14.65478210 97423
Epoch: 2026-06-20T07:58Z
TLE epoch observation values (Epoch: 2026-06-20T07:58:20.949Z)
Latitude
0.00003°
Longitude
-96.21292°
Altitude
714.923 km
Speed
7.479 km/s
True Right ascension
19h 27m 41s
True Declination
0° 00' 00"
Sunlit
Object was in full shadow at epoch
Visualization orbit readout
Latitude
Unknown
Longitude
Unknown
Altitude
Unknown
Speed
Unknown
Apparent Right ascension
Unknown
Apparent Declination
Unknown
Sunlit
N/A
Visualization observer readout
Local Sidereal Time
10:20:28
Azimuth
Unknown
Elevation
Unknown
Doppler factor
Unknown
Orbital elements
Apogee altitude
761.298 km
Perigee altitude
583.551 km
Semi-major axis
7,050.562 km
Eccentricity
0.01261
Inclination
89.2703°
RAAN
291.9227°
Arg. of periapsis
245.399°
True anomaly
114.72234°
Mean anomaly
113.4051°
Eccentric anomaly
114.06455°
Mean motion
3.66613 °/min
Orbital period
98.2 mins
BSTAR
0.00071148
Loading maneuver chart data...
Computing Atmospheric mass density...
Loading historical data...
Loading historical data...
Loading historical data...
Loading historical data...
Loading historical data...
Loading historical data...
Loading historical data...

Documentation

Showing up to 5 results
|